Regional Weather Roundup
Issued by NWS

Home | Current Version | Previous Version | Text Only | Print | Product List | Glossary On
Versions: 1 2 3 4 5 6 7 8 9 10 11 12 13 14 15 16 17 18 19 20 21 22 23 24 25 26 27 28 29 30 31 32 33 34 35 36 37 38 39 40 41 42 43 44 45 46 47 48 49 50
000
ASUS46 KSTO 131809
RWRCA

NORTHERN AND CENTRAL CA REGIONAL WEATHER ROUNDUP
NATIONAL WEATHER SERVICE SACRAMENTO CA
1000 AM PST SAT FEB 13 2016

NOTE: FAIR INDICATES FEW OR NO CLOUDS BELOW 12,000 FEET WITH NO
SIGNIFICANT WEATHER AND/OR OBSTRUCTIONS TO VISIBILITY.

CAZ001-003-131900-
NORTHWEST AREA

CITY           SKY/WX    TMP DP  RH WIND       PRES   REMARKS
CRESCENT CITY  MOSUNNY   51  43  74 E3        30.42R
ARCATA         NOT AVBL
SHELTER COVE   NOT AVBL
UKIAH          SUNNY     53  47  79 VRB3      30.33S
$$

CAZ006-505>513-131900-
BAY AREA

CITY           SKY/WX    TMP DP  RH WIND       PRES   REMARKS
SANTA ROSA     SUNNY     60  51  72 N7        30.28S
SAN RAFAEL     N/A       51  MM  MM MISG
NAPA           FOG       51  51 100 CALM      30.30R VSB 1
CONCORD        SUNNY     60  50  69 CALM      30.28S
OAKLAND CITY   N/A       54  MM  MM MISG
OAKLAND        PTSUNNY   57  53  86 W6        30.30R
SAN FRAN CITY  N/A       56  MM  93 MISG
SAN FRAN ARPT  PTSUNNY   55  52  89 NW5       30.30R
LIVERMORE      SUNNY     53  49  86 W3        30.27S
HAYWARD        FOG       54  51  90 NW5       30.29R VSB 1/2
REDWOOD CITY   N/A       MM  MM  MM MISG
MOFFETT ARPT   CLOUDY    54  52  93 W5        30.30R FOG
SAN JOSE ARPT    N/A     55  53  93 NW7       30.28R FOG
$$
CAZ034-037-514>518-131900-
CENTRAL COAST

CITY           SKY/WX    TMP DP  RH WIND       PRES   REMARKS
WATSONVILLE    FOG       53  53 100 NW3       30.25F VSB 1
SALINAS        CLOUDY    52  51  97 SE5       30.24F FOG
MONTEREY       SUNNY     61  54  77 NE9       30.23F
PT PIEDRAS BLS NOT AVBL
SAN LUIS OBISP SUNNY     73  53  49 NW15      30.15F
SANTA MARIA    MOSUNNY   74  41  30 N15       30.15S
$$
CAZ015-016-131900-
NORTHERN SACRAMENTO VALLEY

CITY           SKY/WX    TMP DP  RH WIND       PRES   REMARKS
REDDING        SUNNY     62  38  40 N10       30.27F
RED BLUFF      SUNNY     60  43  53 N12       30.28F
OROVILLE       SUNNY     55  48  77 W6        30.28R
$$
CAZ016>018-131900-
SOUTHERN SACRAMENTO VALLEY

CITY           SKY/WX    TMP DP  RH WIND       PRES   REMARKS
AUBURN         SUNNY     64  36  34 CALM      30.27S
BEALE AFB      SUNNY     56  49  77 NW8       30.25S
LINCOLN        FAIR      55  45  67 NW3       30.25S
MARYSVILLE     SUNNY     59  47  64 NW8       30.27S
PLACERVILLE    FAIR      63  25  23 E5        30.27F
SAC INTL ARPT  SUNNY     57  48  72 NW9       30.27R
MATHER AIRPORT SUNNY     57  46  67 NW5       30.26S
DOWNTOWN SAC   N/A       58  MM  MM MISG
SAC EXEC ARPT  SUNNY     58  50  75 NW6       30.26F
VACAVILLE      SUNNY     66  47  50 CALM      30.28S
TRAVIS AFB     NOT AVBL
$$
CAZ019>021-131900-
SAN JOAQUIN VALLEY

CITY           SKY/WX    TMP DP  RH WIND       PRES   REMARKS
STOCKTON       SUNNY     59  53  80 W7        30.26R
MODESTO        SUNNY     61  53  75 NW10      30.25F
MERCED         FOG       53  53 100 N6        30.26S VSB 1/2
LEMOORE        SUNNY     59  51  75 NW8       30.27R
FRESNO         MOSUNNY   56  50  80 S3        30.26S HAZE
HANFORD        FOG       51  51 100 CALM      30.27R VSB 1/4
PORTERVILLE    MOSUNNY  N/A N/A N/A CALM      30.26F FOG
BAKERSFIELD    PTSUNNY   60  48  64 CALM      30.24F HAZE
$$
CAZ011-012-071-131900-
NORTHERN MOUNTAINS

CITY           SKY/WX    TMP DP  RH WIND       PRES   REMARKS
YREKA          SUNNY     44  35  70 N7        30.40R
MOUNT SHASTA   SUNNY     48  35  60 CALM      30.36R
ALTURAS        SUNNY     42  37  82 CALM      30.36S
$$
CAZ011-012-071-131900-
SIERRA NEVADA MTNS

CITY           SKY/WX    TMP DP  RH WIND       PRES   REMARKS
BLUE CANYON    SUNNY     57   7  13 CALM      30.35S
TRUCKEE        SUNNY     34  21  60 CALM      30.40S
TAHOE VLY ARPT SUNNY     41  20  43 CALM      30.38F
MAMMOTH LAKES  FAIR      52  10  19 W5        30.39R
$$



USA.gov is the U.S. government's official web portal to all federal, state and local government web resources and services.